{"data":{"norad_id":52705,"epoch":"2026-09-19T21:40:52.883904Z","epoch_age_seconds":118048,"freshness":"FRESH","line1":"1 52705U 22053BB  26262.90338986  .00000922  00000+0  37337-4 0  9994","line2":"2 52705  53.1599 328.3728 0001261  83.7313 276.3834 15.35398138240826","mean_motion":15.35398138,"eccentricity":0.0001261,"inclination_deg":53.1599,"raan_deg":328.3728,"arg_perigee_deg":83.7313,"mean_anomaly_deg":276.3834,"bstar":3.7337e-5,"rev_number":24082,"period_min":93.786749140893,"perigee_km":458.87591493792,"apogee_km":460.60042705605,"semimajor_km":6837.875170997,"source":"CELESTRAK","updated_at":"2026-09-20T09:00:40.109614Z"}}